Regional Weather Roundup
Issued by NWS

Home | Current Version | Previous Version | Graphics & Text | Print | Product List | Glossary On
Versions: 1 2 3 4 5 6 7 8 9 10 11 12 13 14 15 16 17 18 19 20 21 22 23 24 25 26 27 28 29 30 31 32 33 34 35 36 37 38 39 40 41 42 43 44 45 46 47 48 49 50
000
ASUS43 KFSD 241810
RWRSD

WEATHER ROUNDUP FOR SOUTH DAKOTA
NATIONAL WEATHER SERVICE SIOUX FALLS SD
100 PM CDT THU APR 24 2014

NOTE: "FAIR" INDICATES FEW OR NO CLOUDS BELOW 12,000 FEET WITH NO
SIGNIFICANT WEATHER AND/OR OBSTRUCTIONS TO VISIBILITY.


SDZ001>005-009-010-012>017-241900-
NORTHWEST AND NORTH CENTRAL SOUTH DAKOTA

CITY           SKY/WX    TMP DP  RH WIND       PRES   REMARKS
BUFFALO          N/A     55  23  28 NW23G36   29.76S
FAITH            N/A     58  27  30 W30G38    29.80F
MOBRIDGE       SUNNY     62  25  24 NW22      29.72F
$$

SDZ012>016-024>037-041>051-057-063-072>074-241900-
SOUTHWEST AND SOUTH CENTRAL SOUTH DAKOTA

CITY           SKY/WX    TMP DP  RH WIND       PRES   REMARKS
RAPID CTY ARPT SUNNY     57  28  33 N13       29.85S
PIERRE         SUNNY     64  28  25 NW25G33   29.78F
CUSTER         SUNNY     51  14  22 W23G31    29.87S
ELLSWORTH AFB  SUNNY     56  28  33 NE6G18    29.85F
PHILIP         SUNNY     63  29  27 N17G24    29.82F
PINE RIDGE     SUNNY     60  19  20 W21G30    29.86F
SPEARFISH      FAIR      54  25  32 NW10G20   29.86F
WINNER         FAIR      66  21  18 NW23G33   29.80S
$$

SDZ004>011-016>023-039-040-241900-
NORTHEAST SOUTH DAKOTA

CITY           SKY/WX    TMP DP  RH WIND       PRES   REMARKS
ABERDEEN       SUNNY     61  36  39 NW14      29.71F
WATERTOWN      FAIR      50  44  80 NW5       29.72R
SISSETON         N/A     46  43  89 CALM      29.71S
$$

SDZ017-020-022-023-036>040-048>070-241900-
SOUTHEAST SOUTH DAKOTA

CITY           SKY/WX    TMP DP  RH WIND       PRES   REMARKS
SIOUX FALLS    PTSUNNY   57  44  62 N20G25    29.73S
HURON          SUNNY     67  29  24 NW18G28   29.72F
CHAMBERLAIN      N/A     65  24  21 NW22G31   29.78S
MITCHELL       SUNNY     68  28  22 NW20G28   29.73F
YANKTON        FAIR      61  43  51 NW17      29.76S
$$

ABBREVIATIONS USED IN REMARKS
   TC - TEMPERATURE IN CELSIUS
  WCI - WIND CHILL INDEX
   HX - HEAT INDEX
  VSB - VISIBILITY




USA.gov is the U.S. government's official web portal to all federal, state and local government web resources and services.